"Pseudo-MPEC" for P10ONK4

Created 2019 Jun 18 16:07:38 UT using Find_Orb

Click here for an explanation of pseudo-MPECs

 
 Astrometry: 
     P10ONK4  C2019 06 02Q?cP^79asH-ERuHks+#y9%[1,W^h26-vp^Zbwu[y\'QX)BQM.!A4F52
     P10ONK4  C2019 06 02\,@mjcZp+.6m_eN^H/6m21o:?pAstrometry[-,gNy17Yla5Qp%DF52
     P10ONK4  C2019 06 02UkLnm\*MOp^x0WnkeTXmSj^g6Ego(1%M]s@sWmM+^bnO'.tVxXw4F52
     P10ONK4  C2019 06 07XyU'[f,.#YNw6uSdTCQJ%9y5712%C1ZKG1U$k^U'Y.E:G7?y;x8:F51
     P10ONK4  C2019 06 073*EcI0xtWR,g0QKeX^N$Rj%Cc$_aqStUYsr)^pW;I=\3n-y'F'_xF51
     P10ONK4  C2019 06 07qdB5C[vn4qIHDu+(lbxoZZ((B[chbH@4gb#dwyX2J[ZoVeQ'OK;0F51
     P10ONK4  C2019 06 07.DRCat`0:tQWw;TPM@!bTJrs!u!+p;.:GRVA8f5fql=fGG9gUBLMF51
     P10ONK4  C2019 06 07;(p3#g(e[)=7$/W9O(,ln-nredacted;-NpJwj@%l6loWN[m1R*5F51
     P10ONK4  C2019 06 07(kDh89u,J=NSanXS+$#,^/=jn,,05x.#j!SvWRsclick+,Zg_wj!F51
     P10ONK4  C2019 06 07)(1!s%-YivWwTGS-w/P(I6#T]bQNd50O6).w=Qtt(Nv[5MjS#LVmF51
     P10ONK4  C2019 06 07hZHvST:BiXQ0?(*m12il!=].tcdhRxjXuwfi@^YR`db%mFsX2J3YF51
     P10ONK4  C2019 06 08.26175 16 55 42.14 -04 27 30.7    ~691b 20.8 GVNEOCPI52
     P10ONK4  C2019 06 08.26508 16 55 41.86 -04 27 29.3    ~691b 21.1 GVNEOCPI52
     P10ONK4  C2019 06 08.26840 16 55 41.64 -04 27 27.3    ~691b 21.0 GVNEOCPI52
     P10ONK4  C2019 06 08.27173 16 55 41.37 -04 27 25.9    ~691b 21.1 GVNEOCPI52
     P10ONK4 |C2019 06 08aA.K`PW8@igq/WkmjD.T`3Ga`Ys#^-6E(xJBN[[H$H@3%e[o/i$J807
     P10ONK4 |C2019 06 08V%1=_*tCkdBNcGpk(+:aT4t3y/]cRa3/fxK(THNrk58r't$u[2c0807
     P10ONK4 |C2019 06 08y?\YrCF[dD;iMo8!A)#WuO^o-3here+sP;sl4UL`SrA==6,D_xy'807
     P10ONK4  C2019 06 09.28458 16 54 27.67 -04 19 31.0    ~697b 20.6 GVNEOCPI52
     P10ONK4  C2019 06 09.28766 16 54 27.47 -04 19 30.4    ~697b 20.6 GVNEOCPI52
     P10ONK4  C2019 06 09.29073 16 54 27.21 -04 19 28.5    ~697b 20.6 GVNEOCPI52
     P10ONK4  C2019 06 09.29380 16 54 27.02 -04 19 28.3    ~697b 20.6 GVNEOCPI52
     P10ONK4 KC2019 06 11[V^V_vm/ef99+:o1UH*P?!g%yL$x-9.kJmAP`*o'Cu@Oiifor`DkH21
     P10ONK4 KC2019 06 11DO0yjxBnPPa^u1R=;lG0Mk+HtO74M)Ym2]1;+akmf$R]@x+PLP6NH21
     P10ONK4 KC2019 06 11$?e8lHKop^g-o(90M`0nQ^o6iu@YIDxh7jkb9aF'nocaZ7Gj_fa6H21
     P10ONK4  C2019 06 11$V'GQGTFXB]I3EbtFCC;-*uxR@]r[MvkTDvV$P]r9``84^FWT-O+F51
     P10ONK4  C2019 06 11HIB@^opOJnKZsU60NOphgrexplanationr4ZYPcdx3`KVh!Z]n0\F51
     P10ONK4  C2019 06 11*@d3jRTZih:Hr$gpkMh]Wq=nx1$4oxx(BP]8^=''X*y\KJ'x8C6IF51
     P10ONK4  C2019 06 11;-=msu'hM%qI/.bGKC(]'(sR,+DDAH9N?,G;gjBl;FUIbN++2gg+F51
     P10ONK4  C2019 06 12.34402 16 50 40.26 -03 57 11.1    ~6C97       VNEOCPI52
     P10ONK4  C2019 06 12.34708 16 50 40.10 -03 57 10.0    ~6C97 21.0 GVNEOCPI52
     P10ONK4  C2019 06 12.36160 16 50 38.99 -03 57 03.7    ~6C97 21.3 GVNEOCPI52
     P10ONK4  C2019 06 13.29092 16 49 29.32 -03 50 46.6    ~6D7q       VNEOCPI52
     P10ONK4  C2019 06 13.29447 16 49 29.01 -03 50 45.4    ~6D7q       VNEOCPI52

Station data:
(807) Cerro Tololo Observatory, La Serena  (S30.169136 W70.805900)  Chile.
(F51) Pan-STARRS 1, Haleakala  (N20.707235 W156.255910)  US/Hawaii.
   Observers N. Primak, A. Schultz, S. Watters, J. Thiel, T. Goggia. Measurer
   PS1 Science Consortium. 1.8-m Ritchey-Chrétien + CCD.
(F52) Pan-STARRS 2, Haleakala  (N20.707384 W156.255910)  US/Hawaii. 1.8-m
   Ritchey-Chrétien + CCD.
(H21) Astronomical Research Observatory, Westfield  (N39.483057 W87.968270)
   US/Illinois. 0.76-m f/3.0 astrograph + CCD.
(I52) Steward Observatory, Mt. Lemmon Station  (N32.442547 W110.788920)
   US/Arizona.  Observers T. A. Pruyne, B. M. Africano, E. J. Christensen, G.
   A. Farneth, D. C. Fuls, A. R. Gibbs, A. D. Grauer, H. Groeller, J. A.
   Johnson, R. A. Kowalski, S. M. Larson, G. J. Leonard, R. L. Seaman, F. C.
   Shelly. 1.0-m reflector + CCD.

Orbital elements:  P10ONK4
   Perihelion 2019 Oct 7.084369 +/- 0.0752 TT =  2:01:29 (JD 2458763.584369)
Epoch 2019 Jun 13.0 TT = JDT 2458647.5   Earth MOID: 0.1701   AutoNEOCP
M 323.89731120 +/- 0.040            (J2000 ecliptic)
n   0.31100387 +/- 0.000429         Peri.  171.39062 +/- 0.031
a   2.15753995 +/- 0.00198          Node   170.90974 +/- 0.047
e   0.4543660 +/- 0.000553          Incl.    7.23537 +/- 0.0059
P   3.17                   H 20.4   G  0.15   U  7.5  
q 1.17722694 +/- 0.000255    Q 3.13785297 +/- 0.00405
From 34 observations 2019 June 2-13; mean residual 0".32
Residuals in arcseconds: 
190602 F52  .02-  .13+    190608 I52  .31-  .34-    190611 H21  .32-  .43+    
190602 F52  .15-  .01-    190608 I52  .21+  .08+    190611 F51  .10-  .27+    
190602 F52  .06+  .09+    190608 I52  .01-  .10-    190611 F51  .02-  .27+    
190607 F51  .03+  .05+    190608 807  .08+  .05-    190611 F51  .04-  .19+    
190607 F51  .00   .02+    190608 807  .04+  .10+    190611 F51  .08-  .28+    
190607 F51  .04+  .04-    190608 807  .21+  .26-    190612 I52  1.3-  .18-    
190607 F51  .05+  .14-    190609 I52  .31-  .53+    190612 I52  .06-  .35-    
190607 F51  .04-  .07+    190609 I52  .28+  .29-    190612 I52  .60+  .10-    
190607 F51  .03-  .10-    190609 I52  .04-  .19+    190613 I52  .71+  .24-    
190607 F51  .15+  .15-    190609 I52  .69+  1.0-    190613 I52  .33+  .45-    
190607 F51  .01-  .18-    190611 H21  .20-  .44+    
190608 I52  .06+  .16-    190611 H21  .27-  .42+    

Ephemerides (geocentric):
Date (UTC) HH   RA              Dec         delta   r     elong  mag " sig PA
---- -- -- --  -------------   -----------  ------ ------ -----  --- ---- ---
2019 06 18 16  16 42 41.704   -03 19 21.32  .62962 1.6079 154.7 21.3 .822   9
2019 06 18 17  16 42 38.556   -03 19 08.95  .62947 1.6077 154.7 21.3 .830   9
2019 06 18 18  16 42 35.409   -03 18 56.63  .62933 1.6074 154.6 21.3 .837   9
2019 06 18 19  16 42 32.263   -03 18 44.33  .62918 1.6072 154.6 21.3 .844   8
2019 06 18 20  16 42 29.117   -03 18 32.07  .62904 1.6069 154.6 21.3 .852   8
2019 06 18 21  16 42 25.972   -03 18 19.85  .62889 1.6067 154.5 21.3 .859   8
2019 06 18 22  16 42 22.828   -03 18 07.67  .62875 1.6064 154.5 21.3 .867   8
2019 06 18 23  16 42 19.684   -03 17 55.51  .62860 1.6062 154.4 21.3 .874   8
2019 06 19 00  16 42 16.541   -03 17 43.40  .62846 1.6059 154.4 21.3 .882   8
2019 06 19 01  16 42 13.398   -03 17 31.32  .62831 1.6057 154.4 21.3 .889   8
2019 06 19 02  16 42 10.256   -03 17 19.28  .62817 1.6054 154.3 21.3 .897   8
2019 06 19 03  16 42 07.115   -03 17 07.27  .62803 1.6052 154.3 21.3 .905   8
2019 06 19 04  16 42 03.975   -03 16 55.30  .62788 1.6050 154.3 21.3 .912   8
2019 06 19 05  16 42 00.835   -03 16 43.36  .62774 1.6047 154.2 21.3 .920   8
2019 06 19 06  16 41 57.696   -03 16 31.46  .62760 1.6045 154.2 21.3 .928   8
2019 06 19 07  16 41 54.557   -03 16 19.60  .62746 1.6042 154.1 21.3 .936   8
2019 06 19 08  16 41 51.420   -03 16 07.77  .62732 1.6040 154.1 21.3 .943   7
2019 06 19 09  16 41 48.283   -03 15 55.98  .62717 1.6037 154.1 21.3 .951   7
2019 06 19 10  16 41 45.146   -03 15 44.22  .62703 1.6035 154.0 21.3 .959   7
2019 06 19 11  16 41 42.011   -03 15 32.50  .62689 1.6032 154.0 21.3 .967   7
2019 06 19 12  16 41 38.876   -03 15 20.82  .62675 1.6030 154.0 21.3 .975   7
2019 06 19 13  16 41 35.742   -03 15 09.17  .62661 1.6027 153.9 21.3 .983   7
2019 06 19 14  16 41 32.609   -03 14 57.56  .62647 1.6025 153.9 21.3 0.99   7
2019 06 19 15  16 41 29.477   -03 14 45.98  .62633 1.6022 153.8 21.3 1.00   7
2019 06 19 16  16 41 26.345   -03 14 34.44  .62619 1.6020 153.8 21.3 1.01   7
2019 06 19 17  16 41 23.215   -03 14 22.94  .62605 1.6018 153.8 21.3 1.02   7
2019 06 19 18  16 41 20.085   -03 14 11.47  .62591 1.6015 153.7 21.3 1.02   7
2019 06 19 19  16 41 16.956   -03 14 00.05  .62577 1.6013 153.7 21.3 1.03   7
2019 06 19 20  16 41 13.827   -03 13 48.65  .62564 1.6010 153.7 21.3 1.04   7
2019 06 19 21  16 41 10.700   -03 13 37.30  .62550 1.6008 153.6 21.3 1.05   7
2019 06 19 22  16 41 07.573   -03 13 25.98  .62536 1.6005 153.6 21.3 1.06   6
2019 06 19 23  16 41 04.448   -03 13 14.69  .62522 1.6003 153.5 21.3 1.06   6
2019 06 20 00  16 41 01.323   -03 13 03.45  .62509 1.6000 153.5 21.3 1.07   6
2019 06 20 01  16 40 58.199   -03 12 52.24  .62495 1.5998 153.5 21.3 1.08   6
2019 06 20 02  16 40 55.076   -03 12 41.06  .62481 1.5995 153.4 21.3 1.09   6
2019 06 20 03  16 40 51.954   -03 12 29.93  .62468 1.5993 153.4 21.3 1.10   6
2019 06 20 04  16 40 48.832   -03 12 18.83  .62454 1.5990 153.3 21.3 1.11   6
2019 06 20 05  16 40 45.712   -03 12 07.76  .62440 1.5988 153.3 21.3 1.11   6
2019 06 20 06  16 40 42.593   -03 11 56.74  .62427 1.5986 153.3 21.3 1.12   6
2019 06 20 07  16 40 39.474   -03 11 45.75  .62413 1.5983 153.2 21.3 1.13   6
2019 06 20 08  16 40 36.357   -03 11 34.79  .62400 1.5981 153.2 21.3 1.14   6
2019 06 20 09  16 40 33.240   -03 11 23.88  .62386 1.5978 153.2 21.3 1.15   6
2019 06 20 10  16 40 30.125   -03 11 13.00  .62373 1.5976 153.1 21.3 1.16   6
2019 06 20 11  16 40 27.010   -03 11 02.16  .62360 1.5973 153.1 21.3 1.17   6
2019 06 20 12  16 40 23.897   -03 10 51.36  .62346 1.5971 153.0 21.3 1.18   5
2019 06 20 13  16 40 20.784   -03 10 40.59  .62333 1.5968 153.0 21.3 1.18   5
2019 06 20 14  16 40 17.673   -03 10 29.86  .62320 1.5966 153.0 21.3 1.19   5
2019 06 20 15  16 40 14.562   -03 10 19.17  .62306 1.5963 152.9 21.3 1.20   5